OBJECT E, 43755

Orbit data source: Space-Track

You're viewing an Uncataloged Satellite

Recently launched and/or uncataloged satellites may have evolving metadata. Metadata may include but not limited to: Owner, Maufacturer, Bus, Motor, and Mission.

OBJECT E, 43755 is a satellite owned by NIIPP (CIS) in LEO that was launched on Fri, 30 Nov 2018 UTC launched from the Plesetsk Missile And Space Complex (PKMTR). Unknown objects in Earth's orbit typically refer to objects detected orbiting the Earth but have not yet been identified or cataloged. These objects could be anything from previously untracked satellites, spent rocket stages, debris from satellite collisions, or even natural meteoroids temporarily captured by Earth's gravity.

Loading next visibility...
Identifier
43755, 2018-097E
Orbit
LEO
Country
Flag of CISCIS
Related business
Manufacturer
NIIPP
Mission
Spacecraft
Bus & Motor
Unknown
Mass
Unknown
Launch date (UTC)
2018-11-30 (7 years ago)
Launch vehicle
Unknown
Launch site
Plesetsk Missile And Space Complex (PKMTR)
Object type
Unknown
Shape & HBR
Box, 0.1 m
Radar Cross Section
0.060 m², Small (<0.1 m²)

Expand to show TLE details & history
Last TLE update: 9 hours ago

TLE from 9 hours ago
0 OBJECT E
1 43755U 18097E   25308.96959047  .00000040  00000-0  10614-3 0  9995
2 43755  82.5138 245.9564 0217326 101.2753 261.2855 12.80902945323904
Epoch: 2025-11-04T23:16Z
TLE epoch observation values (Epoch: 2025-11-04T23:16:12.616Z)
Latitude
-0.00007°
Longitude
-147.54516°
Altitude
1,369.553 km
Speed
7.161 km/s
True Right ascension
16h 23m 49s
True Declination
0° 00' 00"
Sunlit
Object was in daylight at epoch
Visualization orbit readout
Latitude
Unknown
Longitude
Unknown
Altitude
Unknown
Speed
Unknown
Apparent Right ascension
Unknown
Apparent Declination
Unknown
Sunlit
N/A
Visualization observer readout
Local Sidereal Time
03:47:02
Azimuth
Unknown
Elevation
Unknown
Doppler factor
Unknown
Orbital elements
Apogee altitude
1,502.766 km
Perigee altitude
1,167.507 km
Semi-major axis
7,713.274 km
Eccentricity
0.02173
Inclination
82.5138°
RAAN
245.9564°
Arg. of periapsis
101.2753°
True anomaly
258.83472°
Mean anomaly
261.2855°
Eccentric anomaly
260.05901°
Mean motion
3.20395 °/min
Orbital period
112.36 mins
BSTAR
0.00010614
Loading maneuver chart data...
Computing Atmospheric mass density...
Loading historical data...
Loading historical data...
Loading historical data...
Loading historical data...
Loading historical data...
Loading historical data...
Loading historical data...
Other satellites on launch #97 in the year 2018 (2018-11-30 UTC)

Documentation

Showing up to 5 results
|